Location: Harwich
(41.7160°N, 69.9939°W)
Time: 05:34:11
(UTC+01:00)

Courier 1B Rocket - All Passes

Search period start: 30 January 2023 00:00
Search period end: 09 February 2023 00:00
Orbit: 920 x 1202 km, 28.3° (Epoch: 29 January)

Date Brightness Start Highest point End Pass type
(mag) Time Alt. Az. Time Alt. Az. Time Alt. Az.
30 Jan - 01:10:43 10° SW 01:15:36 23° S 01:20:40 10° ESE visible
30 Jan - 03:03:10 10° WSW 03:08:09 23° S 03:13:23 10° SE visible
30 Jan - 04:57:24 10° SW 05:00:41 14° SSW 05:04:04 10° S night (unlit)
31 Jan - 00:10:20 10° SW 00:14:50 21° SSE 00:19:26 10° ESE visible
31 Jan - 02:02:20 10° SW 02:07:20 24° S 02:12:32 10° SE visible
31 Jan - 03:55:47 10° SW 03:59:52 17° SSW 04:04:06 10° SSE night (unlit)
31 Jan - 23:10:10 10° SSW 23:14:05 17° SSE 23:18:04 10° SE daylight
01 Feb - 01:01:37 10° SW 01:06:31 24° S 01:11:35 10° SE visible
01 Feb - 02:54:33 10° WSW 02:59:03 20° SSW 03:03:43 10° SSE visible
01 Feb - 22:10:24 10° S 22:13:23 14° SSE 22:16:23 10° SE daylight
02 Feb - 00:01:01 10° SW 00:05:45 23° S 00:10:33 10° SE visible
02 Feb - 01:53:33 10° WSW 01:58:15 22° S 02:03:07 10° SE visible
02 Feb - 03:48:04 10° SW 03:50:42 13° SSW 03:53:24 10° S night (unlit)
02 Feb - 21:12:11 10° SSE 21:12:42 10° SSE 21:13:12 10° SSE daylight
02 Feb - 23:00:34 10° SW 23:05:00 20° S 23:09:28 10° ESE daylight
03 Feb - 00:52:40 10° SW 00:57:28 23° S 01:02:23 10° SE visible
03 Feb - 02:46:15 10° SW 02:49:56 16° SSW 02:53:41 10° SSE visible
03 Feb - 22:00:17 10° SSW 22:04:16 17° SSE 22:08:13 10° SE daylight
03 Feb - 23:51:53 10° SW 23:56:41 23° S 00:01:33 10° SE visible
04 Feb - 01:44:57 10° SW 01:49:09 19° SSW 01:53:28 10° SSE visible
04 Feb - 21:00:21 10° SSW 21:03:32 14° SSE 21:06:42 10° SE daylight
04 Feb - 22:51:12 10° SW 22:55:56 23° S 23:00:38 10° SE daylight
05 Feb - 00:43:52 10° SW 00:48:24 21° S 00:53:00 10° SE visible
05 Feb - 02:38:48 10° SW 02:40:47 11° SSW 02:42:47 10° S visible
05 Feb - 20:01:18 10° S 20:02:49 11° SSE 20:04:19 10° SE daylight
05 Feb - 21:50:38 10° SW 21:55:11 21° S 21:59:39 10° SE daylight
05 Feb - 23:42:55 10° SW 23:47:39 23° S 23:52:24 10° SE visible
06 Feb - 01:36:43 10° SW 01:40:03 15° SSW 01:43:26 10° SSE visible
06 Feb - 20:50:13 10° SSW 20:54:26 18° SSE 20:58:32 10° SE daylight
06 Feb - 22:42:02 10° SW 22:46:53 23° S 22:51:41 10° SE daylight
07 Feb - 00:35:16 10° SW 00:39:19 18° SSW 00:43:24 10° SSE visible
07 Feb - 19:50:05 10° SSW 19:53:40 15° SSE 19:57:09 10° SE daylight
07 Feb - 21:41:14 10° SW 21:46:07 23° S 21:50:53 10° SE daylight
07 Feb - 23:34:04 10° WSW 23:38:35 21° S 23:43:04 10° SE visible
08 Feb - 01:29:31 10° SW 01:30:54 11° SSW 01:32:17 10° S visible
08 Feb - 18:50:32 10° S 18:52:54 12° SSE 18:55:13 10° SE daylight
08 Feb - 20:40:32 10° SW 20:45:20 22° S 20:49:58 10° ESE daylight
08 Feb - 22:33:00 10° SW 22:37:50 23° S 22:42:34 10° SE daylight
